[[{"header":{"parameterUnit":"m.s-1","parameterCategory":1,"la1":30.2991,"la2":30.254,"lo1":-89.0895,"lo2":-89.0444,"dy":0.0017,"dx":0.0017,"nx":28,"ny":28,"refTime":"2023-11-16T03:00:00:Z","depth":0,"parameterNumber":2,"parameterNumberName":"U-component_of_WINDS"},"data":[0,0,0,0,0,0,0,0,0,0,0,0,0,0,0,0,0,0,0,0,0,0,0,0,0,0,0,0,0,0,0,0,0,0,0,0,0,0,0,0,0,0,0,0,0,0,0,0,0,0,0,0,0,0,0,0,0,0,-4.9938,-4.9939,0,-5.0012,-5.0012,-5.0013,-4.9906,-4.9902,-4.9899,-4.9895,-4.9972,-4.9978,-4.9983,0,0,0,0,0,0,0,0,0,0,0,0,0,-4.9708,-4.9713,-4.9938,-4.9939,-4.994,-5.0011,-5.0012,-5.0013,-4.9907,-4.9902,-4.9898,-4.9893,-4.9971,-4.9977,-4.9984,0,0,0,0,0,0,0,0,0,0,0,0,0,-4.9798,-4.9714,-4.9938,-4.9896,-4.9892,-5.0011,-5.0013,-5.0014,-4.9908,-4.9902,-4.9896,-4.9891,-4.9968,-4.9976,-4.9985,-5.015,0,0,-5.001,-5.0014,0,0,0,0,0,0,0,0,-4.9793,-4.9806,-4.9901,-4.9899,-4.9895,-4.9944,-4.9959,-5.0059,-4.9909,-4.9902,-4.9895,-4.9888,-4.9968,-4.9976,-5.0002,-5.0153,-5.0156,-5.0011,-5.0016,-5.002,-5.0022,0,0,0,0,0,0,0,-4.9787,-4.9802,-4.9967,-4.9902,-4.9899,-4.9873,-4.988,-4.9978,-4.9966,-4.9902,-4.9895,-4.9905,-4.9965,-4.9994,-5.0003,-5.0158,-5.0011,-5.0018,-5.0023,-5.0027,-5.0449,-5.0455,0,0,0,0,0,0,-4.9785,-4.9798,-4.9965,-4.997,-4.9829,-4.9882,-4.9889,-4.9934,-4.9964,-4.9963,-4.9909,-4.9899,-4.9983,-4.9993,-5.0005,-5.0201,-5.002,-5.0027,-5.0032,-5.0443,-5.045,-5.0457,0,0,0,0,0,0,-4.9781,-4.9801,-4.9962,-4.9882,-4.99,-4.9892,-4.9943,-4.9939,-4.9967,-4.997,-4.9967,-4.9941,-4.9979,-4.9993,-5.0115,-5.0203,-5.0031,-5.0039,-5.0435,-5.0445,-5.0454,-5.0595,0,0,0,0,0,0,-4.9774,-4.98,-4.9862,-4.9884,-4.9905,-5.007,-4.9949,-4.9944,-4.9982,-4.9969,-4.9999,-4.9998,-4.9975,-5.0103,-5.0123,-5.0211,-5.0045,-5.0428,-5.044,-5.0451,-5.0582,-5.0608,-5.063,0,0,0,0,0,-4.9767,-4.9899,-4.9866,-4.9887,-4.9982,-5.0075,-5.0087,-5.0057,-4.9989,-5.0052,-5.0054,-4.9998,-5.0189,-5.0116,-5.0138,-5.023,-5.0422,-5.0436,-5.045,-5.0572,-5.0603,-5.0629,0,0,0,0,0,0,-4.9889,-4.9901,-4.9865,-5.0008,-5.0042,-5.0057,-5.0135,-5.0091,-5.0145,-5.0131,-5.0092,-5.01,-5.023,-5.0241,-5.016,-5.0391,-5.0294,-5.0313,-5.038,-5.0409,-5.0432,-5.0428,-5.0052,0,0,0,0,0,-4.9933,-5.0007,-5.0013,-5.0139,-5.0158,-5.0144,-5.0183,-5.0157,-5.0191,-5.0204,-5.0215,-5.025,-5.0318,-5.0364,-5.0426,-5.0583,-5.0588,-5.0657,-5.068,-5.07,-5.0717,-5.0802,-5.0833,-5.0503,-5.0503,-5.0502,0,0,-5.0024,-5.004,-5.0089,-5.0164,-5.0187,-5.0266,-5.0157,-5.0244,-5.0302,-5.0218,-5.0333,-5.0342,-5.0378,-5.0518,-5.058,-5.0532,-5.081,-5.0718,-5.0733,-5.074,-5.082,-5.0851,-5.0879,-5.0512,-5.0511,-5.0509,0,0,-5.023,-5.0249,-5.0357,-5.0382,-5.0417,-5.0407,-5.0433,-5.0455,-5.0458,-5.0573,-5.0512,-5.058,-5.0698,-5.0727,-5.0757,-5.0974,-5.0925,-5.0996,-5.112,-5.1204,-5.123,-5.1253,-5.1332,-5.1361,-5.1013,-5.1013,-5.1013,0,-5.0339,-5.0454,-5.0418,-5.051,-5.0545,-5.0472,-5.0581,-5.0607,-5.0662,-5.0689,-5.0633,-5.078,-5.0799,-5.0946,-5.0999,-5.1025,-5.1054,-5.0993,-5.1229,-5.1251,-5.1272,-5.1348,-5.1377,-5.1022,-5.1021,-5.102,-5.1019,0,-5.0588,-5.0668,-5.0751,-5.0806,-5.085,-5.095,-5.093,-5.0979,-5.0949,-5.0945,-5.1064,-5.1084,-5.115,-5.1182,-5.1154,-5.1326,-5.1294,-5.1235,-5.1137,-5.1313,-5.1383,-5.1411,-5.1034,-5.1031,-5.1028,-5.1026,0,0,-5.0875,-5.0907,-5.0939,-5.0963,-5.0996,-5.1059,-5.1156,-5.1219,-5.1264,-5.1304,-5.1385,-5.1486,-5.1431,-5.1466,-5.144,-5.1512,-5.1686,-5.1443,-5.1444,-5.149,-5.1878,-5.1924,-5.1958,-5.1652,-5.1657,-5.1662,-5.1875,0,-5.1082,-5.125,-5.122,-5.1383,-5.1458,-5.1389,-5.1473,-5.1504,-5.1503,-5.1566,-5.1565,-5.1638,-5.1559,-5.1579,-5.1648,-5.165,-5.1763,-5.1634,-5.173,-5.1733,-5.1725,-5.1994,-5.2044,-5.2245,-5.1902,-5.1907,-5.191,0,-5.1347,-5.1397,-5.1568,-5.159,-5.162,-5.1697,-5.1754,-5.1815,-5.1848,-5.1842,-5.1881,-5.1841,-5.1939,-5.1838,-5.1973,-5.1886,-5.1922,-5.193,-5.1936,-5.1946,-5.1834,-5.2014,-5.2307,-5.2339,-5.1953,-5.1949,-5.1946,0,-5.1542,-5.1651,-5.1768,-5.1791,-5.1819,-5.1875,-5.189,-5.1917,-5.1958,-5.2007,-5.2033,-5.2094,-5.2128,-5.2176,-5.2154,-5.2082,-5.2294,-5.219,-5.2293,-5.2294,-5.2343,-5.234,-5.2649,-5.2363,-5.2363,-5.2362,-5.2361,0,-5.1778,-5.1886,-5.1856,-5.1929,-5.2047,-5.2011,-5.213,-5.2137,-5.2162,-5.2235,-5.2178,-5.2247,-5.2213,-5.2281,-5.2264,-5.2379,-5.2394,-5.2393,-5.2388,-5.24,-5.2401,-5.2425,-5.2412,-5.237,-5.2368,-5.2367,-5.2365,0,-5.2017,-5.2001,-5.2124,-5.2141,-5.2148,-5.2235,-5.2249,-5.2317,-5.2311,-5.2404,-5.2424,-5.2415,-5.2491,-5.2473,-5.2557,-5.2546,-5.2692,-5.2668,-5.2681,-5.2676,-5.278,-5.2772,-5.3118,-5.3162,-5.2846,-5.2849,-5.2851,0,-5.217,-5.2252,-5.2277,-5.2321,-5.234,-5.2412,-5.2453,-5.2421,-5.2466,-5.251,-5.2573,-5.2644,-5.27,-5.2826,-5.2827,-5.2891,-5.287,-5.2986,-5.2879,-5.2889,-5.2874,-5.2871,-5.2879,-5.3009,-5.3012,-5.3015,-5.3018,0,-5.2444,-5.2432,-5.2493,-5.2552,-5.2603,-5.2648,-5.2687,-5.2727,-5.2698,-5.2752,-5.2829,-5.2872,-5.2957,-5.3029,-5.3088,-5.3104,-5.3058,-5.3051,-5.3079,-5.3093,-5.3098,-5.3098,-5.2742,-5.3044,-5.3041,-5.3039,-5.3038,-5.3037,-5.2646,-5.2715,-5.2744,-5.2815,-5.2841,-5.2879,-5.2944,-5.2946,-5.3009,-5.3076,-5.3053,-5.3142,-5.3173,-5.3248,-5.327,-5.334,-5.3296,-5.3335,-5.3346,-5.3357,-5.3371,-5.3085,-5.335,-5.3349,-5.3349,-5.3348,-5.3347,0,-5.2919,-5.2934,-5.2998,-5.3056,-5.3111,-5.306,-5.3102,-5.3152,-5.3231,-5.3263,-5.3319,-5.3408,-5.3478,-5.3485,-5.355,-5.3605,-5.3585,-5.3624,-5.362,-5.3625,-5.3405,-5.3376,-5.3638,-5.3638,-5.3638,-5.3638,-5.3638,-5.3638,-5.3067,-5.3183,-5.3174,-5.3302,-5.3316,-5.3403,-5.3431,-5.3466,-5.3492,-5.3595,-5.3652,-5.3655,-5.3678,-5.3745,-5.3807,-5.3807,-5.3835,-5.3882,-5.3875,-5.3669,-5.364,-5.3613,-5.3585,-5.3888,-5.3888,-5.4089,-5.4091,-5.4092]},{"header":{"parameterUnit":"m.s-1","parameterCategory":1,"la1":30.2991,"la2":30.254,"lo1":-89.0895,"lo2":-89.0444,"dy":0.0017,"dx":0.0017,"nx":28,"ny":28,"refTime":"2023-11-16T03:00:00:Z","depth":0,"parameterNumber":3,"parameterNumberName":"V-component_of_WINDS"},"data":[0,0,0,0,0,0,0,0,0,0,0,0,0,0,0,0,0,0,0,0,0,0,0,0,0,0,0,0,0,0,0,0,0,0,0,0,0,0,0,0,0,0,0,0,0,0,0,0,0,0,0,0,0,0,0,0,0,0,-4.6311,-4.6311,0,-4.6322,-4.6323,-4.6323,-4.6254,-4.6252,-4.625,-4.6248,-4.6258,-4.626,-4.6262,0,0,0,0,0,0,0,0,0,0,0,0,0,-4.6228,-4.623,-4.6311,-4.6311,-4.6312,-4.6322,-4.6323,-4.6323,-4.6254,-4.6251,-4.6249,-4.6247,-4.6257,-4.626,-4.6262,0,0,0,0,0,0,0,0,0,0,0,0,0,-4.6254,-4.6231,-4.6311,-4.6279,-4.6276,-4.6322,-4.6323,-4.6323,-4.6254,-4.6251,-4.6248,-4.6246,-4.6257,-4.626,-4.6263,-4.6341,0,0,-4.6272,-4.6274,0,0,0,0,0,0,0,0,-4.6253,-4.6257,-4.6283,-4.6281,-4.6278,-4.6284,-4.6297,-4.6329,-4.6255,-4.6262,-4.6248,-4.6244,-4.6269,-4.6271,-4.6279,-4.6342,-4.6342,-4.6273,-4.6275,-4.6276,-4.6277,0,0,0,0,0,0,0,-4.6251,-4.6257,-4.6316,-4.6284,-4.628,-4.6263,-4.6263,-4.6303,-4.6282,-4.6262,-4.6257,-4.6259,-4.6267,-4.6277,-4.6279,-4.6342,-4.6273,-4.6275,-4.6277,-4.6279,-4.6468,-4.6471,0,0,0,0,0,0,-4.6254,-4.6256,-4.6315,-4.6316,-4.6258,-4.6266,-4.6267,-4.6285,-4.6281,-4.6278,-4.6261,-4.6256,-4.6273,-4.6276,-4.6279,-4.637,-4.6276,-4.6279,-4.6281,-4.6465,-4.6469,-4.6472,0,0,0,0,0,0,-4.6253,-4.626,-4.6315,-4.6284,-4.629,-4.6271,-4.6291,-4.6286,-4.6296,-4.6281,-4.6277,-4.6275,-4.627,-4.6275,-4.6326,-4.6369,-4.628,-4.6283,-4.6461,-4.6466,-4.647,-4.6553,0,0,0,0,0,0,-4.625,-4.626,-4.629,-4.6286,-4.6292,-4.6362,-4.6294,-4.6289,-4.6302,-4.6294,-4.6293,-4.629,-4.6268,-4.6322,-4.6329,-4.6372,-4.6286,-4.6457,-4.6463,-4.6469,-4.6546,-4.656,-4.6572,0,0,0,0,0,-4.6248,-4.6313,-4.6292,-4.63,-4.6329,-4.6365,-4.6368,-4.6343,-4.6306,-4.6335,-4.6326,-4.629,-4.6364,-4.6328,-4.6335,-4.638,-4.6454,-4.6462,-4.6468,-4.6541,-4.6557,-4.6571,0,0,0,0,0,0,-4.6323,-4.6312,-4.6288,-4.6354,-4.6361,-4.6353,-4.639,-4.6361,-4.6378,-4.6371,-4.6337,-4.6338,-4.6394,-4.6392,-4.6352,-4.6455,-4.6402,-4.6411,-4.6455,-4.647,-4.6483,-4.6482,-4.6288,0,0,0,0,0,-4.6347,-4.6378,-4.6366,-4.6425,-4.643,-4.641,-4.6424,-4.6403,-4.6409,-4.6411,-4.6405,-4.6412,-4.6436,-4.6453,-4.6475,-4.6545,-4.6544,-4.658,-4.6592,-4.6603,-4.6611,-4.6648,-4.6663,-4.6495,-4.6495,-4.6495,0,0,-4.6398,-4.6395,-4.6416,-4.644,-4.6443,-4.6474,-4.6412,-4.6449,-4.6471,-4.6417,-4.6465,-4.6461,-4.6465,-4.6527,-4.6553,-4.6527,-4.6657,-4.6612,-4.662,-4.6623,-4.6656,-4.6672,-4.6687,-4.65,-4.6499,-4.6498,0,0,-4.6505,-4.6507,-4.6556,-4.656,-4.6565,-4.6551,-4.6563,-4.6559,-4.6554,-4.6602,-4.6562,-4.6588,-4.6631,-4.6636,-4.6644,-4.6752,-4.672,-4.676,-4.6827,-4.6862,-4.6876,-4.6887,-4.6926,-4.694,-4.6769,-4.6769,-4.6769,0,-4.6567,-4.6614,-4.6585,-4.6624,-4.6635,-4.6587,-4.6636,-4.6641,-4.6653,-4.6661,-4.6631,-4.6683,-4.6683,-4.6744,-4.6771,-4.6779,-4.6791,-4.6761,-4.6876,-4.6888,-4.6898,-4.6934,-4.6949,-4.6774,-4.6773,-4.6772,-4.6772,0,-4.6689,-4.6722,-4.6761,-4.6774,-4.6789,-4.6833,-4.681,-4.6829,-4.6807,-4.6795,-4.6844,-4.6842,-4.6862,-4.6875,-4.6854,-4.6933,-4.6917,-4.6882,-4.6828,-4.6919,-4.6953,-4.6966,-4.678,-4.6779,-4.6777,-4.6776,0,0,-4.6846,-4.6841,-4.6856,-4.6861,-4.6862,-4.6887,-4.6928,-4.6947,-4.6964,-4.6974,-4.7007,-4.7044,-4.7011,-4.7021,-4.6999,-4.7031,-4.7116,-4.6992,-4.6992,-4.7015,-4.7203,-4.7229,-4.7246,-4.7095,-4.7098,-4.71,-4.7203,0,-4.6951,-4.7021,-4.6996,-4.7067,-4.7097,-4.7051,-4.7086,-4.7091,-4.7081,-4.7104,-4.7093,-4.712,-4.7076,-4.7081,-4.711,-4.71,-4.7154,-4.7092,-4.7125,-4.7127,-4.7126,-4.7264,-4.7291,-4.7389,-4.7216,-4.7218,-4.722,0,-4.7083,-4.7098,-4.7173,-4.7168,-4.718,-4.7212,-4.7228,-4.725,-4.7254,-4.7245,-4.7255,-4.7227,-4.7266,-4.7212,-4.7265,-4.7224,-4.7236,-4.7233,-4.7236,-4.7238,-4.7179,-4.7269,-4.742,-4.7434,-4.724,-4.7238,-4.7237,0,-4.719,-4.7228,-4.7277,-4.7283,-4.7279,-4.7303,-4.7302,-4.7303,-4.7316,-4.733,-4.7338,-4.7355,-4.7365,-4.7379,-4.7356,-4.7319,-4.7413,-4.7357,-4.7406,-4.7406,-4.7428,-4.7427,-4.7582,-4.7436,-4.7435,-4.7435,-4.7435,0,-4.731,-4.7357,-4.7325,-4.7355,-4.7407,-4.7376,-4.7428,-4.7422,-4.7423,-4.7451,-4.7412,-4.7439,-4.7407,-4.7431,-4.7413,-4.7459,-4.7464,-4.7457,-4.7452,-4.7461,-4.7462,-4.7468,-4.7461,-4.7439,-4.7438,-4.7437,-4.7437,0,-4.7437,-4.7418,-4.7468,-4.746,-4.7459,-4.7498,-4.749,-4.7518,-4.7505,-4.7541,-4.7548,-4.7528,-4.7554,-4.7532,-4.7557,-4.7545,-4.7607,-4.7592,-4.7606,-4.7601,-4.7651,-4.7647,-4.7816,-4.7836,-4.7677,-4.7679,-4.768,0,-4.7515,-4.7551,-4.7546,-4.7562,-4.7564,-4.759,-4.7603,-4.7575,-4.759,-4.7596,-4.7623,-4.7645,-4.7662,-4.7705,-4.7693,-4.7712,-4.7697,-4.7755,-4.7699,-4.7707,-4.7697,-4.7696,-4.7699,-4.7766,-4.7768,-4.7769,-4.7771,0,-4.7656,-4.7644,-4.7665,-4.7682,-4.7698,-4.771,-4.7719,-4.7734,-4.7705,-4.7723,-4.7749,-4.7762,-4.7788,-4.781,-4.7825,-4.7824,-4.7793,-4.7788,-4.78,-4.781,-4.7816,-4.7813,-4.7636,-4.7785,-4.7783,-4.7782,-4.7781,-4.7781,-4.7761,-4.779,-4.7791,-4.7815,-4.7818,-4.7827,-4.7852,-4.7843,-4.7864,-4.7882,-4.7864,-4.7895,-4.7897,-4.7913,-4.7916,-4.7939,-4.7915,-4.7933,-4.7937,-4.7942,-4.7949,-4.7813,-4.7942,-4.7941,-4.7941,-4.7941,-4.794,0,-4.7899,-4.7897,-4.7919,-4.7933,-4.7951,-4.792,-4.7928,-4.7945,-4.7974,-4.7978,-4.7995,-4.8024,-4.8046,-4.8035,-4.8054,-4.8075,-4.8061,-4.8081,-4.8079,-4.8079,-4.797,-4.7958,-4.8092,-4.8091,-4.8091,-4.8091,-4.8091,-4.8091,-4.7973,-4.802,-4.8008,-4.8056,-4.8054,-4.8084,-4.8092,-4.8099,-4.8102,-4.8137,-4.8155,-4.8148,-4.8146,-4.8164,-4.8182,-4.8178,-4.8187,-4.8212,-4.8203,-4.8101,-4.8087,-4.8072,-4.8061,-4.8214,-4.8214,-4.831,-4.8311,-4.8311]}]]